TimeEST,TemperatureF,Dew PointF,Humidity,Sea Level PressureIn,VisibilityMPH,Wind Direction,Wind SpeedMPH,Gust SpeedMPH,PrecipitationIn,Events,Conditions,WindDirDegrees,DateUTC
12:13 AM,36.0,29.8,78,30.19,10.0,SSE,9.2,-,N/A,,Overcast,150,2013-01-11 05:13:00
12:34 AM,35.8,30.4,81,30.18,10.0,SSE,9.2,-,N/A,Rain,Light Rain,150,2013-01-11 05:34:00
12:54 AM,35.6,30.7,82,30.17,10.0,SSE,10.4,-,N/A,Rain,Light Rain,150,2013-01-11 05:54:00
1:13 AM,35.2,31.1,85,30.15,10.0,SSE,9.2,17.3,N/A,Rain,Light Rain,150,2013-01-11 06:13:00
1:34 AM,35.1,31.8,88,30.13,10.0,SE,9.2,-,N/A,Rain,Light Rain,140,2013-01-11 06:34:00
1:54 AM,34.9,32.0,89,30.13,7.0,SE,8.1,-,0.01,Rain,Light Rain,140,2013-01-11 06:54:00
2:13 AM,34.7,32.2,91,30.12,3.0,SE,10.4,-,0.04,Rain,Rain,140,2013-01-11 07:13:00
2:34 AM,34.3,32.4,92,30.11,2.5,SSE,11.5,-,0.12,Rain,Rain,150,2013-01-11 07:34:00
2:54 AM,34.3,32.7,94,30.09,2.5,SE,8.1,-,0.19,Rain,Heavy Rain,130,2013-01-11 07:54:00
3:13 AM,34.7,32.9,93,30.06,3.0,SE,9.2,16.1,0.02,Rain,Rain,140,2013-01-11 08:13:00
3:34 AM,34.7,32.9,93,30.07,3.0,SSE,11.5,17.3,0.06,Rain,Rain,150,2013-01-11 08:34:00
3:54 AM,34.5,32.9,94,30.04,4.0,SSE,9.2,16.1,0.09,Rain,Light Rain,150,2013-01-11 08:54:00
4:13 AM,34.7,33.1,94,30.01,5.0,SE,11.5,18.4,0.01,Rain,Light Rain,140,2013-01-11 09:13:00
4:34 AM,34.7,33.1,94,29.99,4.0,SSE,9.2,-,0.06,Rain,Rain,160,2013-01-11 09:34:00
4:54 AM,34.7,33.3,94,29.97,5.0,SSE,9.2,16.1,0.08,Rain,Light Rain,150,2013-01-11 09:54:00
5:13 AM,34.9,33.3,94,29.96,5.0,SSE,10.4,-,N/A,Rain,Light Rain,150,2013-01-11 10:13:00
5:34 AM,35.1,33.4,94,29.94,5.0,SSE,12.7,-,0.01,Rain,Light Rain,150,2013-01-11 10:34:00
5:54 AM,35.2,33.8,94,29.92,5.0,SE,10.4,-,0.02,Rain,Light Rain,140,2013-01-11 10:54:00
6:13 AM,35.6,34.2,94,29.91,5.0,SSE,9.2,-,N/A,Rain,Light Rain,160,2013-01-11 11:13:00
6:34 AM,35.6,34.2,94,29.90,7.0,SSE,8.1,-,0.01,Rain,Light Rain,160,2013-01-11 11:34:00
6:54 AM,35.6,34.3,95,29.89,7.0,SSE,9.2,-,0.01,,Drizzle,160,2013-01-11 11:54:00
7:13 AM,35.8,34.7,96,29.88,7.0,SSE,10.4,-,N/A,,Drizzle,160,2013-01-11 12:13:00
7:34 AM,36.0,34.9,96,29.87,7.0,SSE,8.1,-,N/A,Rain,Rain,160,2013-01-11 12:34:00
7:54 AM,36.5,35.1,95,29.86,7.0,SSE,5.8,-,N/A,,Drizzle,160,2013-01-11 12:54:00
8:13 AM,36.5,35.1,95,29.85,7.0,South,6.9,-,N/A,,Light Drizzle,170,2013-01-11 13:13:00
8:34 AM,36.5,35.1,95,29.84,5.0,SSE,5.8,-,N/A,,Overcast,160,2013-01-11 13:34:00
8:54 AM,36.5,35.2,95,29.83,7.0,SSE,5.8,-,N/A,,Overcast,160,2013-01-11 13:54:00
9:14 AM,36.7,35.2,95,29.81,7.0,SSE,8.1,-,N/A,,Light Drizzle,150,2013-01-11 14:14:00
9:34 AM,36.9,35.2,94,29.79,7.0,SSE,8.1,-,N/A,,Overcast,150,2013-01-11 14:34:00
9:53 AM,37.4,35.6,93,29.77,7.0,SSE,5.8,-,N/A,,Overcast,150,2013-01-11 14:53:00
10:14 AM,37.6,36.1,95,29.77,7.0,SSE,5.8,-,N/A,,Drizzle,160,2013-01-11 15:14:00
10:34 AM,37.6,36.1,95,29.77,5.0,SSE,6.9,-,N/A,,Drizzle,160,2013-01-11 15:34:00
10:53 AM,38.3,36.7,94,29.78,7.0,South,9.2,-,N/A,,Overcast,180,2013-01-11 15:53:00
11:14 AM,38.5,36.7,93,29.77,10.0,South,8.1,-,N/A,,Overcast,180,2013-01-11 16:14:00
11:34 AM,38.3,36.7,94,29.75,7.0,South,5.8,-,N/A,,Overcast,170,2013-01-11 16:34:00
11:53 AM,38.8,37.4,95,29.74,5.0,South,9.2,-,N/A,,Overcast,180,2013-01-11 16:53:00
12:14 PM,39.2,37.9,95,29.73,2.5,South,9.2,-,N/A,,Drizzle,180,2013-01-11 17:14:00
12:34 PM,39.4,38.3,96,29.71,1.5,South,6.9,-,N/A,,Heavy Drizzle,180,2013-01-11 17:34:00
12:53 PM,39.9,38.8,96,29.70,2.0,South,6.9,-,N/A,,Light Drizzle,190,2013-01-11 17:53:00
1:14 PM,40.3,39.4,97,29.69,1.5,South,9.2,-,N/A,,Light Drizzle,180,2013-01-11 18:14:00
1:34 PM,41.0,40.1,97,29.69,0.8,South,9.2,-,N/A,,Overcast,190,2013-01-11 18:34:00
1:53 PM,41.0,40.1,97,29.69,0.8,South,9.2,-,N/A,,Overcast,190,2013-01-11 18:53:00
2:14 PM,41.9,41.0,97,29.69,0.5,SSW,8.1,-,N/A,Rain,Light Rain,200,2013-01-11 19:14:00
2:34 PM,42.3,41.5,97,29.68,0.5,SSW,8.1,-,N/A,,Overcast,210,2013-01-11 19:34:00
2:53 PM,43.0,42.3,97,29.68,0.8,SSW,8.1,-,N/A,,Overcast,200,2013-01-11 19:53:00
3:14 PM,43.7,42.8,97,29.69,0.8,SSW,9.2,-,N/A,,Overcast,210,2013-01-11 20:14:00
3:34 PM,43.7,43.0,97,29.69,0.8,SSW,8.1,-,N/A,,Overcast,210,2013-01-11 20:34:00
3:53 PM,43.7,43.0,97,29.70,0.5,SW,8.1,-,N/A,Fog,Fog,220,2013-01-11 20:53:00
4:14 PM,43.7,43.0,97,29.70,0.5,SW,6.9,-,N/A,Fog,Fog,220,2013-01-11 21:14:00
4:34 PM,43.9,43.2,97,29.71,0.5,SSW,9.2,-,N/A,Fog,Fog,210,2013-01-11 21:34:00
4:53 PM,44.4,43.7,97,29.70,0.2,SSW,8.1,-,N/A,Fog,Fog,210,2013-01-11 21:53:00
5:14 PM,44.2,43.7,98,29.71,0.2,SW,6.9,-,N/A,Fog,Fog,220,2013-01-11 22:14:00
5:34 PM,44.4,43.7,97,29.72,0.5,SW,6.9,-,N/A,Fog,Fog,230,2013-01-11 22:34:00
5:53 PM,44.2,43.7,98,29.72,0.5,SSW,9.2,-,N/A,Fog,Fog,210,2013-01-11 22:53:00
6:14 PM,44.6,44.1,98,29.72,0.5,SSW,9.2,-,N/A,Fog,Fog,210,2013-01-11 23:14:00
6:34 PM,44.8,44.2,98,29.73,0.8,SW,8.1,-,N/A,,Overcast,220,2013-01-11 23:34:00
6:54 PM,45.5,45.0,98,29.73,1.8,SW,10.4,-,N/A,,Overcast,220,2013-01-11 23:54:00
7:14 PM,46.6,45.9,97,29.74,4.0,SW,15.0,-,N/A,,Overcast,230,2013-01-12 00:14:00
7:33 PM,47.3,46.6,97,29.74,7.0,SW,17.3,25.3,N/A,,Overcast,230,2013-01-12 00:33:00
7:54 PM,46.8,46.2,98,29.75,10.0,SW,16.1,-,N/A,,Overcast,230,2013-01-12 00:54:00
8:14 PM,46.6,45.1,95,29.76,10.0,SW,12.7,-,N/A,,Overcast,230,2013-01-12 01:14:00
8:33 PM,46.4,44.6,93,29.76,10.0,SW,13.8,19.6,N/A,,Overcast,230,2013-01-12 01:33:00
8:54 PM,46.0,44.2,93,29.77,10.0,SW,13.8,-,N/A,,Overcast,220,2013-01-12 01:54:00
9:14 PM,45.7,43.7,93,29.77,10.0,WSW,11.5,16.1,N/A,,Overcast,240,2013-01-12 02:14:00
9:34 PM,45.5,43.7,93,29.77,10.0,SW,10.4,-,N/A,,Overcast,220,2013-01-12 02:34:00
9:54 PM,45.1,43.7,95,29.78,10.0,SW,11.5,-,N/A,,Overcast,230,2013-01-12 02:54:00
10:14 PM,45.0,43.7,95,29.78,10.0,SW,8.1,-,N/A,,Overcast,220,2013-01-12 03:14:00
10:34 PM,45.1,43.7,95,29.76,10.0,South,4.6,-,N/A,,Overcast,190,2013-01-12 03:34:00
10:54 PM,45.1,43.7,95,29.76,7.0,South,8.1,-,N/A,,Overcast,190,2013-01-12 03:54:00
11:13 PM,45.3,43.9,95,29.77,7.0,SSW,11.5,18.4,N/A,,Overcast,200,2013-01-12 04:13:00
11:34 PM,45.1,43.7,95,29.77,7.0,SSW,8.1,-,N/A,,Overcast,210,2013-01-12 04:34:00
11:54 PM,45.5,43.9,94,29.77,7.0,SSW,6.9,-,N/A,,Overcast,200,2013-01-12 04:54:00